Location: Carri�res
(48.9069°N, 2.1792°E)
Time: 13:37:01
(UTC+00:00)

RESURS DK-1 - Pass Details

Date: 17 January 2021
Orbit: 557 x 560 km, 69.9° (Epoch: 25 February)

Event Time Altitude Azimuth Distance (km) Brightness Sun altitude
Rises 17:05:45 0° 188° (S) 2,731 6.3 -6.7°
Reaches altitude 10° 17:08:02 10° 180° (S) 1,840 5.3 -7.1°
Maximum altitude 17:11:51 38° 112° (ESE) 861 3.0 -7.6°
Drops below altitude 10° 17:15:42 10° 44° (NE) 1,853 4.4 -8.2°
Enters shadow 17:16:05 - 42° (NE) 2,000 4.6 -8.3°
